Regional Weather Roundup
Issued by NWS

Home | Current Version | Previous Version | Graphics & Text | Print | Product List | Glossary Off
Versions: 1 2 3 4 5 6 7 8 9 10 11 12 13 14 15 16 17 18 19 20 21 22 23 24 25 26 27 28 29 30 31 32 33 34 35 36 37 38 39 40 41 42 43 44 45 46 47 48 49 50

671
ASUS43 KDTX 252310
RWRMI
MICHIGAN HOURLY REGIONAL WEATHER ROUNDUP
NATIONAL WEATHER SERVICE DETROIT/PONTIAC MI
700 PM EDT THU MAY 25 2017

NOTE: "FAIR" INDICATES FEW OR NO CLOUDS BELOW 12,000 FEET WITH NO
SIGNIFICANT WEATHER AND/OR OBSTRUCTION TO VISIBILITY.

MIZ047>049-052>055-059>063-066>070-074>076-081>083-260000-
SOUTHEAST LOWER MICHIGAN

CITY           SKY/WX    TMP DP  RH WIND       PRES   REMARKS
ADRIAN         CLOUDY    61  55  81 N7        29.56R
ALMA           CLOUDY    58  57  94 NW5       29.58R
ANN ARBOR      CLOUDY    61  56  83 NW10      29.53R
BAD AXE        CLOUDY    54  53  98 NE6       29.55R FOG
CARO           DRIZZLE   55  54  96 NW7       29.54S
DETROIT CITY   CLOUDY    60  58  92 NW7       29.51R
DETROIT        CLOUDY    61  57  87 NW9       29.53R
FLINT          CLOUDY    56  55  97 N9        29.55R
GROSSE ILE     CLOUDY    60  57  91 NW10G16   29.51R
HILLSDALE      CLOUDY    59  54  82 NW10      29.57R
HOWELL         CLOUDY    60  54  80 N6        29.55R

CITY           SKY/WX    TMP DP  RH WIND       PRES   REMARKS
JACKSON        CLOUDY    61  56  83 NW7       29.57R
LAMBERTVILLE   CLOUDY    62  57  86 NW9       29.53R
LANSING        CLOUDY    61  53  75 NW8       29.58R
LAPEER         DRIZZLE   56  55  97 NW7       29.54R
MASON          CLOUDY    60  56  85 NW6       29.56S
MONROE         CLOUDY    62  58  87 NW5       29.52R
MT. CLEMENS    RAIN      59  59 100 VRB1      29.50R FOG
PONTIAC        CLOUDY    57  54  89 NW14      29.52R
PORT HOPE        N/A     50  49  96 NE15      29.54R
PORT HURON     DRIZZLE   57  55  94 N6        29.51R
TRI CITIES     CLOUDY    58  55  90 N12       29.57R
MIDLAND        CLOUDY    59  53  79 N6        29.56S
TROY           CLOUDY    59  55  88 NW12      29.54R FOG
SAGINAW HB     CLOUDY    55  52  88 N10       29.56R
$$
MIZ043>046-050>051-056>058-064>065-071>073-077>080-260000-
SOUTHWEST LOWER MICHIGAN

CITY           SKY/WX    TMP DP  RH WIND       PRES   REMARKS
BATTLE CREEK   CLOUDY    64  57  78 NW6       29.59R
BENTON HARBOR  PTSUNNY   54  49  83 W5        29.64R
BIG RAPIDS     CLOUDY    60  52  74 N7        29.60R
COLDWATER      CLOUDY    62  58  88 NW6       29.58R
FREMONT        PTSUNNY   64  51  60 N10       29.60R
HOLLAND        MOSUNNY   63  53  70 NW9       29.61R
GRAND RAPIDS   CLOUDY    65  56  72 NW12      29.58R
IONIA          CLOUDY    63  53  71 N7        29.57S
KALAMAZOO      CLOUDY    63  54  72 W8        29.60R
LUDINGTON      SUNNY     64  54  71 N10G16    29.61S
MARSHALL       CLOUDY    62  56  81 CALM      29.57S
MOUNT PLEASANT CLOUDY    60  53  76 N5        29.57R
MUSKEGON       PTSUNNY   63  53  70 W7        29.60R
SOUTH HAVEN    MOSUNNY   57  52  85 NW6       29.63S
$$
MIZ016>042-260000-
NORTHERN LOWER MICHIGAN

CITY           SKY/WX    TMP DP  RH WIND       PRES   REMARKS
ALPENA         LGT RAIN  53  53 100 NE13      29.63S FOG
BEAVER ISLAND  CLOUDY    58  55  88 NE8       29.68S
BELLAIRE       CLOUDY    60  52  75 NE10G18   29.64R
CADILLAC       PTSUNNY   60  52  76 N8        29.61R
CHARLEVOIX     CLOUDY    55  52  90 N5        29.69R
FRANKFORT      SUNNY     59  51  75 N6        29.65R
GAYLORD        LGT RAIN  55  51  86 NE9       29.64R FOG
GRAYLING       CLOUDY    56  52  87 N12       29.63R
HARBOR SPRINGS CLOUDY    56  54  92 NE7       29.66R
HOUGHTON LAKE  CLOUDY    57  51  80 NE12      29.60S
MANISTEE       PTSUNNY   63  53  70 NW10      29.63R
OSCODA         RAIN      51  50  97 NE12      29.58S
PELLSTON       CLOUDY    56  53  90 E8        29.67S
ROGERS CITY    RAIN      49  48  97 NE5       29.66S VSB 1/2
TRAVERSE CITY  PTSUNNY   59  52  77 N5        29.62R
$$
MIZ007>008-015-260000-
EASTERN UPPER MICHIGAN

CITY           SKY/WX    TMP DP  RH WIND       PRES   REMARKS
KINROSS        LGT RAIN  57  53  86 NE12      29.69S
MACKINAC ISLAN CLOUDY    55  55 100 NE8       29.67S
NEWBERRY       CLOUDY    58  56  93 NE12      29.69F
S. S. MARIE    CLOUDY    60  54  80 E8        29.69S
MUNISING         N/A     49  45  86 NE7       29.72R
$$
MIZ004>006-011>014-085-260000-
CENTRAL UPPER MICHIGAN

CITY           SKY/WX    TMP DP  RH WIND       PRES   REMARKS
MANISTIQUE     CLOUDY    57  54  89 NE6       29.68F
ESCANABA       CLOUDY    60  52  74 CALM      29.68R
MENOMINEE      CLOUDY    65  51  60 CALM      29.68S
SAWYER-GWINN   SUNNY     61  48  63 NE9       29.72S
$$
MIZ001>003-009>011-084-260000-
WESTERN UPPER MICHIGAN

CITY           SKY/WX    TMP DP  RH WIND       PRES   REMARKS
IRON MOUNTAIN  MOSUNNY   71  42  35 NE8G17    29.66F
HOUGHTON       SUNNY     64  46  52 E9        29.71S
COPPER HARBOR    N/A     49  43  80 E3        29.73S
IRONWOOD       SUNNY     70  48  45 NE8       29.68S
$$

ABBREVIATIONS USED IN REMARKS
   TC - TEMPERATURE IN CELSIUS
  WCI - WIND CHILL INDEX
   HX - HEAT INDEX
  VSB - VISIBILITY





USA.gov is the U.S. government's official web portal to all federal, state and local government web resources and services.